パンスターズ彗星

P/2020 T3 ( PanSTARRS )

English version
Home page
Updated on September 18, 2021

---------------------------------------------------------------------

・ プロフィール

発見日 2020年10月10日
発見光度 21.3等
発見者 Pan-STARRS 1 telescope (Haleakala)

・ 写真集

・ 軌道要素

Epoch 2021 July 5.0 TT = JDT 2459400.5
T 2021 Jan. 20.46691 TT                                 Rudenko
q   1.4365615            (2000.0)            P               Q
n   0.14940056     Peri.  357.04052     +0.32421356     -0.93807430
a   3.5175037      Node    74.01721     +0.87051029     +0.24534286
e   0.5915963      Incl.    7.29529     +0.37026665     +0.24458840
P   6.60
From 187 observations 2020 Sept. 9-2021 Mar. 10, mean residual 0".7.

・ 星図

・ 光度変化

        m1 =  8.5 + 5 logΔ + 30 log r(t - 100)  [   ,-13]  (              〜2021年 1月 7日)
        m1 = 10.5 + 5 logΔ + 20 log r(t + 150)  [-13,   ]  (2021年 1月 7日〜              )

---------------------------------------------------------------------

軌道要素はM.P.E.C. 2021-N06に掲載されたものです。
星図はステラナビゲータ Ver.10 (アストロアーツ) で作成したものです。
光度グラフはComet for Windowsで作成したものです。

---------------------------------------------------------------------

Copyright(C) Seiichi Yoshida (comet@aerith.net). All rights reserved.